Location: Maynard F. Jordan Observatory
(44.9000°N, 68.6700°W)
Time: 19:37:02
(UTC-04:00)

Cosmos 2297 Rocket - Visible Passes

Search period start: 22 July 2014 00:00
Search period end: 01 August 2014 00:00
Orbit: 841 x 843 km, 71.0° (Epoch: 20 July)

Date Brightness Start Highest point End Pass type
(mag) Time Alt. Az. Time Alt. Az. Time Alt. Az.
22 Jul 2.8 00:12:25 39° ESE 00:12:32 39° ESE 00:17:45 10° NE visible
22 Jul 3.3 01:54:13 25° W 01:56:37 35° NW 02:01:47 10° NNE visible
22 Jul 2.9 23:57:33 37° ESE 23:57:33 37° ESE 00:02:42 10° NE visible
23 Jul 3.3 01:39:21 27° W 01:41:35 37° NW 01:46:49 10° NNE visible
23 Jul 2.9 23:42:39 35° ESE 23:42:39 35° ESE 23:47:39 10° NE visible
24 Jul 3.2 01:24:26 28° W 01:26:34 38° NW 01:31:50 10° NNE visible
24 Jul 3.0 23:27:42 34° ESE 23:27:42 34° ESE 23:32:37 10° NE visible
25 Jul 3.2 01:09:30 30° W 01:11:32 40° NW 01:16:52 10° NNE visible
25 Jul 3.0 23:12:43 32° ESE 23:12:43 32° ESE 23:17:34 10° NE visible
26 Jul 3.1 00:54:30 31° WSW 00:56:31 42° WNW 01:01:53 10° NNE visible
26 Jul 3.1 22:57:41 31° ESE 22:57:41 31° ESE 23:02:30 10° NE visible
27 Jul 3.1 00:39:28 32° WSW 00:41:30 44° WNW 00:46:54 10° NNE visible
27 Jul 3.1 22:42:36 29° ESE 22:42:40 29° ESE 22:47:27 10° NE visible
28 Jul 3.0 00:24:23 32° WSW 00:26:29 46° WNW 00:31:55 10° NNE visible
28 Jul 4.9 02:11:12 10° NW 02:12:05 10° NW 02:12:59 10° NNW visible
28 Jul 3.1 22:27:27 28° ESE 22:27:41 28° ESE 22:32:23 10° NE visible
29 Jul 2.9 00:09:13 32° WSW 00:11:28 48° WNW 00:16:56 10° NNE visible
29 Jul 4.9 01:55:42 10° NW 01:57:01 11° NW 01:58:21 10° NNW visible
29 Jul 3.2 22:12:13 26° ESE 22:12:43 26° ESE 22:17:19 10° NE visible
29 Jul 2.9 23:53:59 30° WSW 23:56:27 50° WNW 00:01:57 10° NNE visible
30 Jul 4.8 01:40:19 10° NW 01:41:57 11° NW 01:43:37 10° NNW visible
30 Jul 3.2 21:56:53 24° ESE 21:57:45 25° ESE 22:02:15 10° NE visible
30 Jul 2.8 23:38:38 28° WSW 23:41:26 52° WNW 23:46:58 10° NNE visible
31 Jul 4.8 01:24:58 10° WNW 01:26:54 12° NW 01:28:49 10° NNW visible
31 Jul 3.3 21:41:25 22° ESE 21:42:47 24° ESE 21:47:11 10° NE visible
31 Jul 2.8 23:23:10 24° SW 23:26:25 55° WNW 23:31:59 10° NNE visible
